AAL1130 SKBO-KMIA

Flight info

Callsign AAL1130
Flight time 3h 18m
Altitude 36000
Route OSUSU4R GIKPU UQ120 DIBAM DCT KAGEM UL417 EVPIP/N0460F380 UL417 LENAX UL795 ALTIB DCT ZEUSS VIICE2
Aircraft B38M/M-SDE1FGHILORVWXY/HB1

Departure

Time 2026-05-06 16:44
Airport El Dorado International Airport (SKBO)

Arrival

Time 2026-05-06 20:02
Airport Miami International Airport (KMIA)
Time Latitude Longitude Altitude Speed Heading
2026-05-06 16:01 4.69870 -74.13956 8368 ft 0 kts 217°
2026-05-06 16:31 4.69873 -74.13954 8368 ft 2 kts 217°
2026-05-06 16:31 4.69889 -74.13943 8369 ft 3 kts 217°
2026-05-06 16:31 4.69905 -74.13931 8368 ft 2 kts 217°
2026-05-06 16:31 4.69917 -74.13920 8368 ft 3 kts 232°
2026-05-06 16:32 4.69924 -74.13906 8369 ft 3 kts 279°
2026-05-06 16:32 4.69916 -74.13889 8368 ft 3 kts 306°
2026-05-06 16:32 4.69910 -74.13881 8369 ft 1 kts 307°
2026-05-06 16:32 4.69909 -74.13879 8369 ft 0 kts 307°
2026-05-06 16:35 4.69910 -74.13880 8369 ft 0 kts 307°
2026-05-06 16:35 4.69910 -74.13881 8369 ft 0 kts 307°
2026-05-06 16:36 4.69918 -74.13891 8368 ft 3 kts 307°
2026-05-06 16:36 4.69934 -74.13912 8368 ft 4 kts 307°
2026-05-06 16:36 4.69950 -74.13934 8369 ft 0 kts 307°
2026-05-06 16:36 4.69951 -74.13935 8369 ft 0 kts 307°
2026-05-06 16:37 4.69954 -74.13938 8369 ft 1 kts 307°
2026-05-06 16:37 4.69958 -74.13944 8368 ft 1 kts 307°
2026-05-06 16:37 4.69966 -74.13954 8368 ft 3 kts 307°
2026-05-06 16:37 4.69996 -74.13994 8369 ft 12 kts 307°
2026-05-06 16:38 4.70048 -74.14034 8368 ft 3 kts 11°
2026-05-06 16:38 4.70066 -74.14019 8368 ft 9 kts 39°
2026-05-06 16:38 4.70150 -74.13980 8368 ft 17 kts 340°
2026-05-06 16:38 4.70239 -74.14080 8368 ft 22 kts 307°
2026-05-06 16:39 4.70336 -74.14208 8368 ft 24 kts 307°
2026-05-06 16:39 4.70434 -74.14338 8369 ft 23 kts 307°
2026-05-06 16:39 4.70536 -74.14471 8369 ft 25 kts 307°
2026-05-06 16:39 4.70648 -74.14618 8369 ft 28 kts 307°
2026-05-06 16:40 4.70772 -74.14781 8368 ft 31 kts 305°
2026-05-06 16:40 4.70904 -74.14958 8369 ft 31 kts 307°
2026-05-06 16:40 4.71034 -74.15130 8369 ft 29 kts 307°
2026-05-06 16:40 4.71147 -74.15280 8369 ft 27 kts 307°
2026-05-06 16:41 4.71253 -74.15367 8369 ft 6 kts 25°
2026-05-06 16:41 4.71266 -74.15342 8369 ft 8 kts 69°
2026-05-06 16:41 4.71295 -74.15255 8369 ft 17 kts 72°
2026-05-06 16:41 4.71322 -74.15183 8368 ft 5 kts 113°
2026-05-06 16:42 4.71310 -74.15167 8368 ft 0 kts 127°
2026-05-06 16:43 4.71203 -74.15026 8367 ft 56 kts 126°
2026-05-06 16:43 4.70850 -74.14560 8369 ft 111 kts 127°
2026-05-06 16:43 4.70292 -74.13822 8367 ft 157 kts 128°
2026-05-06 16:44 4.69562 -74.12860 8503 ft 185 kts 126°
2026-05-06 16:44 4.68767 -74.11796 9033 ft 198 kts 125°
2026-05-06 16:44 4.68176 -74.10549 9487 ft 203 kts 98°
2026-05-06 16:44 4.68500 -74.09168 9859 ft 215 kts 55°
2026-05-06 16:45 4.69782 -74.08343 10209 ft 238 kts 14°
2026-05-06 16:45 4.71500 -74.08158 10633 ft 250 kts
2026-05-06 16:45 4.73233 -74.07952 11251 ft 250 kts 17°
2026-05-06 16:45 4.74874 -74.07503 12103 ft 246 kts 19°
2026-05-06 16:46 4.76560 -74.07067 12731 ft 252 kts 18°
2026-05-06 16:46 4.78276 -74.06646 13454 ft 255 kts 19°
2026-05-06 16:46 4.80007 -74.06073 13676 ft 271 kts 23°
2026-05-06 16:46 4.81852 -74.05437 14045 ft 289 kts 22°
2026-05-06 16:47 4.83771 -74.04792 14510 ft 301 kts 22°
2026-05-06 16:47 4.85814 -74.04095 14805 ft 320 kts 22°
2026-05-06 16:47 4.87990 -74.03349 15059 ft 340 kts 22°
2026-05-06 16:47 4.90264 -74.02577 15268 ft 359 kts 22°
2026-05-06 16:48 4.92672 -74.01760 15534 ft 374 kts 21°
2026-05-06 16:48 4.95120 -74.00931 16071 ft 377 kts 21°
2026-05-06 16:48 4.97618 -74.00085 16591 ft 382 kts 22°
2026-05-06 16:48 5.00140 -73.99231 16710 ft 383 kts 21°
2026-05-06 16:49 5.02707 -73.98483 17270 ft 385 kts 16°
2026-05-06 16:49 5.05317 -73.97852 17845 ft 387 kts 17°
2026-05-06 16:49 5.07941 -73.97201 18398 ft 390 kts 17°
2026-05-06 16:49 5.10583 -73.96538 18882 ft 392 kts 17°
2026-05-06 16:50 5.13244 -73.95866 19279 ft 395 kts 18°
2026-05-06 16:50 5.15909 -73.95191 19777 ft 395 kts 17°
2026-05-06 16:50 5.18584 -73.94513 20174 ft 399 kts 17°
2026-05-06 16:50 5.21281 -73.93831 20667 ft 400 kts 17°
2026-05-06 16:51 5.23998 -73.93141 21049 ft 406 kts 18°
2026-05-06 16:51 5.26738 -73.92456 21184 ft 406 kts 17°
2026-05-06 16:51 5.29486 -73.91775 21175 ft 406 kts 15°
2026-05-06 16:51 5.32222 -73.91094 21174 ft 405 kts 17°
2026-05-06 16:52 5.34968 -73.90408 21208 ft 409 kts 18°
2026-05-06 16:52 5.37728 -73.89722 21722 ft 407 kts 15°
2026-05-06 16:52 5.40437 -73.89046 22086 ft 411 kts 16°
2026-05-06 16:52 5.43223 -73.88352 22442 ft 413 kts 17°
2026-05-06 16:53 5.46021 -73.87654 22872 ft 416 kts 15°
2026-05-06 16:53 5.48842 -73.86952 23224 ft 419 kts 16°
2026-05-06 16:53 5.51674 -73.86246 23651 ft 421 kts 15°
2026-05-06 16:53 5.54556 -73.85621 23930 ft 425 kts 13°
2026-05-06 16:54 5.57460 -73.85034 24241 ft 426 kts 13°
2026-05-06 16:54 5.60373 -73.84437 24511 ft 429 kts 14°
2026-05-06 16:54 5.63303 -73.83830 24863 ft 430 kts 13°
2026-05-06 16:54 5.66237 -73.83222 25153 ft 433 kts 13°
2026-05-06 16:55 5.69191 -73.82609 25481 ft 434 kts 14°
2026-05-06 16:55 5.72159 -73.81995 25731 ft 438 kts 14°
2026-05-06 16:55 5.75147 -73.81377 26057 ft 439 kts 13°
2026-05-06 16:55 5.78149 -73.80755 26338 ft 442 kts 14°
2026-05-06 16:56 5.81166 -73.80129 26640 ft 443 kts 14°
2026-05-06 16:56 5.84139 -73.79512 26899 ft 446 kts 13°
2026-05-06 16:56 5.87151 -73.78889 27175 ft 448 kts 13°
2026-05-06 16:56 5.90197 -73.78258 27443 ft 450 kts 13°
2026-05-06 16:57 5.93279 -73.77619 27728 ft 452 kts 13°
2026-05-06 16:57 5.96364 -73.76979 28020 ft 454 kts 13°
2026-05-06 16:57 5.99476 -73.76334 28270 ft 456 kts 13°
2026-05-06 16:57 6.02588 -73.75690 28546 ft 458 kts 13°
2026-05-06 16:58 6.05723 -73.75045 28810 ft 460 kts 13°
2026-05-06 16:58 6.08868 -73.74398 29063 ft 462 kts 13°
2026-05-06 16:58 6.12028 -73.73747 29324 ft 464 kts 13°
2026-05-06 16:58 6.15190 -73.73097 29551 ft 466 kts 13°
2026-05-06 16:59 6.18376 -73.72440 29796 ft 468 kts 12°
2026-05-06 16:59 6.21574 -73.71782 30046 ft 470 kts 12°
2026-05-06 16:59 6.24781 -73.71120 30262 ft 472 kts 12°
2026-05-06 16:59 6.27999 -73.70457 30473 ft 473 kts 12°
2026-05-06 17:00 6.31236 -73.69790 30648 ft 475 kts 12°
2026-05-06 17:00 6.34480 -73.69122 30852 ft 477 kts 13°
2026-05-06 17:00 6.37736 -73.68450 31062 ft 478 kts 12°
2026-05-06 17:00 6.40988 -73.67780 31251 ft 480 kts 13°
2026-05-06 17:01 6.44219 -73.67114 31489 ft 480 kts 12°
2026-05-06 17:01 6.47498 -73.66438 31758 ft 480 kts 13°
2026-05-06 17:01 6.50769 -73.65763 32043 ft 480 kts 13°
2026-05-06 17:01 6.54036 -73.65090 32341 ft 480 kts 12°
2026-05-06 17:02 6.57314 -73.64414 32615 ft 479 kts 12°
2026-05-06 17:02 6.60574 -73.63741 32913 ft 478 kts 12°
2026-05-06 17:02 6.63823 -73.63071 33222 ft 478 kts 12°
2026-05-06 17:02 6.67084 -73.62398 33516 ft 478 kts 12°
2026-05-06 17:03 6.70340 -73.61727 33811 ft 477 kts 12°
2026-05-06 17:03 6.73597 -73.61054 34060 ft 477 kts 12°
2026-05-06 17:03 6.76843 -73.60385 34322 ft 476 kts 12°
2026-05-06 17:03 6.80094 -73.59713 34582 ft 476 kts 12°
2026-05-06 17:04 6.83334 -73.59044 34860 ft 474 kts 12°
2026-05-06 17:04 6.86561 -73.58378 35129 ft 473 kts 12°
2026-05-06 17:04 6.89727 -73.57724 35394 ft 472 kts 12°
2026-05-06 17:04 6.92945 -73.57059 35661 ft 471 kts 12°
2026-05-06 17:05 6.96151 -73.56402 35893 ft 471 kts 10°
2026-05-06 17:05 6.99404 -73.56172 35896 ft 467 kts 356°
2026-05-06 17:05 7.02646 -73.56338 35931 ft 468 kts 358°
2026-05-06 17:06 7.09148 -73.56609 35934 ft 467 kts 358°
2026-05-06 17:06 7.15643 -73.56910 35924 ft 467 kts 358°
2026-05-06 17:07 7.22137 -73.57219 35927 ft 467 kts 358°
2026-05-06 17:07 7.28642 -73.57529 35924 ft 467 kts 357°
2026-05-06 17:08 7.35148 -73.57840 35917 ft 468 kts 357°
2026-05-06 17:08 7.41645 -73.58151 35915 ft 468 kts 357°
2026-05-06 17:09 7.48108 -73.58460 35903 ft 468 kts 357°
2026-05-06 17:09 7.54623 -73.58772 35913 ft 468 kts 357°
2026-05-06 17:10 7.61136 -73.59084 35914 ft 468 kts 357°
2026-05-06 17:10 7.67637 -73.59396 35913 ft 469 kts 357°
2026-05-06 17:11 7.73075 -73.59656 35911 ft 470 kts 357°
2026-05-06 17:11 7.79616 -73.59970 35914 ft 470 kts 357°
2026-05-06 17:12 7.86155 -73.60283 35911 ft 471 kts 357°
2026-05-06 17:12 7.92681 -73.60596 35915 ft 470 kts 357°
2026-05-06 17:13 7.99226 -73.60910 35911 ft 470 kts 357°
2026-05-06 17:13 8.05760 -73.61224 35923 ft 470 kts 358°
2026-05-06 17:14 8.12277 -73.61536 35919 ft 470 kts 358°
2026-05-06 17:14 8.18767 -73.61857 35929 ft 470 kts 355°
2026-05-06 17:15 8.25151 -73.63190 35914 ft 470 kts 348°
2026-05-06 17:15 8.31537 -73.64658 35929 ft 470 kts 347°
2026-05-06 17:16 8.37902 -73.66136 35914 ft 469 kts 346°
2026-05-06 17:16 8.44260 -73.67613 35909 ft 469 kts 346°
2026-05-06 17:17 8.50622 -73.69092 35909 ft 469 kts 346°
2026-05-06 17:17 8.56988 -73.70572 35899 ft 469 kts 346°
2026-05-06 17:18 8.63343 -73.72050 35904 ft 469 kts 346°
2026-05-06 17:18 8.69711 -73.73532 35909 ft 469 kts 346°
2026-05-06 17:19 8.76035 -73.75003 35914 ft 467 kts 347°
2026-05-06 17:19 8.82356 -73.76475 35906 ft 465 kts 347°
2026-05-06 17:20 8.88652 -73.77942 35901 ft 465 kts 347°
2026-05-06 17:20 8.94962 -73.79411 35889 ft 465 kts 347°
2026-05-06 17:21 9.01272 -73.80882 35890 ft 465 kts 347°
2026-05-06 17:21 9.07581 -73.82353 35892 ft 465 kts 347°
2026-05-06 17:22 9.13869 -73.83820 35895 ft 464 kts 346°
2026-05-06 17:22 9.20150 -73.85285 35889 ft 463 kts 346°
2026-05-06 17:23 9.26429 -73.86751 35893 ft 463 kts 346°
2026-05-06 17:23 9.32677 -73.88210 35890 ft 463 kts 346°
2026-05-06 17:24 9.38949 -73.89675 35887 ft 463 kts 346°
2026-05-06 17:24 9.45141 -73.91422 35906 ft 462 kts 341°
2026-05-06 17:25 9.51284 -73.93369 35880 ft 461 kts 342°
2026-05-06 17:25 9.57413 -73.95279 35893 ft 461 kts 342°
2026-05-06 17:26 9.63546 -73.97186 35890 ft 461 kts 342°
2026-05-06 17:26 9.69682 -73.99096 35884 ft 461 kts 342°
2026-05-06 17:27 9.75827 -74.01008 35890 ft 461 kts 342°
2026-05-06 17:27 9.81959 -74.02918 35889 ft 461 kts 342°
2026-05-06 17:28 9.88032 -74.04809 35890 ft 460 kts 342°
2026-05-06 17:28 9.94162 -74.06720 35892 ft 460 kts 342°
2026-05-06 17:29 10.00283 -74.08628 35894 ft 460 kts 342°
2026-05-06 17:29 10.06395 -74.10534 35898 ft 460 kts 342°
2026-05-06 17:30 10.12520 -74.12445 35890 ft 460 kts 342°
2026-05-06 17:30 10.18646 -74.14357 35902 ft 460 kts 342°
2026-05-06 17:31 10.24767 -74.16268 35897 ft 459 kts 342°
2026-05-06 17:31 10.30862 -74.18172 35898 ft 459 kts 342°
2026-05-06 17:32 10.36974 -74.20082 35899 ft 459 kts 342°
2026-05-06 17:32 10.43082 -74.21991 35895 ft 459 kts 342°
2026-05-06 17:33 10.49190 -74.23902 35893 ft 459 kts 342°
2026-05-06 17:33 10.55285 -74.25809 35901 ft 459 kts 342°
2026-05-06 17:34 10.61396 -74.27721 35904 ft 459 kts 342°
2026-05-06 17:34 10.67468 -74.29623 35907 ft 459 kts 342°
2026-05-06 17:35 10.73574 -74.31536 35899 ft 459 kts 342°
2026-05-06 17:35 10.79670 -74.33446 35897 ft 459 kts 342°
2026-05-06 17:36 10.88840 -74.36322 35903 ft 459 kts 342°
2026-05-06 17:36 10.94954 -74.38239 35896 ft 459 kts 341°
2026-05-06 17:37 11.01053 -74.40154 35904 ft 459 kts 341°
2026-05-06 17:37 11.07106 -74.42055 35905 ft 458 kts 341°
2026-05-06 17:38 11.13200 -74.43969 35912 ft 458 kts 341°
2026-05-06 17:38 11.19300 -74.45886 35907 ft 459 kts 341°
2026-05-06 17:39 11.25393 -74.47801 35910 ft 459 kts 341°
2026-05-06 17:39 11.31467 -74.49712 35902 ft 455 kts 341°
2026-05-06 17:40 11.37526 -74.51619 35922 ft 455 kts 341°
2026-05-06 17:40 11.43583 -74.53526 35914 ft 456 kts 341°
2026-05-06 17:41 11.49626 -74.55429 35916 ft 456 kts 341°
2026-05-06 17:41 11.55692 -74.57341 35920 ft 455 kts 340°
2026-05-06 17:42 11.61762 -74.59255 35926 ft 455 kts 341°
2026-05-06 17:42 11.67803 -74.61160 35929 ft 454 kts 341°
2026-05-06 17:43 11.73821 -74.63059 35915 ft 454 kts 341°
2026-05-06 17:43 11.79857 -74.64964 35930 ft 453 kts 341°
2026-05-06 17:44 11.85886 -74.66868 35938 ft 452 kts 341°
2026-05-06 17:44 11.91901 -74.68769 35947 ft 454 kts 341°
2026-05-06 17:45 11.97874 -74.70631 35937 ft 454 kts 341°
2026-05-06 17:45 12.03898 -74.72505 35937 ft 450 kts 342°
2026-05-06 17:46 12.09909 -74.74376 35945 ft 450 kts 342°
2026-05-06 17:46 12.15908 -74.76245 35943 ft 452 kts 341°
2026-05-06 17:47 12.21899 -74.78111 35947 ft 452 kts 341°
2026-05-06 17:47 12.27924 -74.79990 35946 ft 451 kts 342°
2026-05-06 17:48 12.33942 -74.81867 35953 ft 451 kts 341°
2026-05-06 17:48 12.39940 -74.83738 35957 ft 451 kts 341°
2026-05-06 17:49 12.45926 -74.85608 35952 ft 452 kts 342°
2026-05-06 17:49 12.51928 -74.87483 35954 ft 450 kts 342°
2026-05-06 17:50 12.57927 -74.89358 35954 ft 449 kts 342°
2026-05-06 17:50 12.63879 -74.91218 35965 ft 450 kts 341°
2026-05-06 17:51 12.69854 -74.93088 35964 ft 451 kts 342°
2026-05-06 17:51 12.75844 -74.94963 35953 ft 450 kts 342°
2026-05-06 17:52 12.81840 -74.96841 35961 ft 449 kts 342°
2026-05-06 17:52 12.87835 -74.98718 35971 ft 451 kts 342°
2026-05-06 17:53 12.93819 -75.00594 35970 ft 452 kts 342°
2026-05-06 17:53 12.99827 -75.02478 35958 ft 452 kts 342°
2026-05-06 17:54 13.05823 -75.04360 35963 ft 449 kts 342°
2026-05-06 17:54 13.11816 -75.06241 35975 ft 450 kts 342°
2026-05-06 17:55 13.17792 -75.08118 35975 ft 451 kts 342°
2026-05-06 17:55 13.23774 -75.09998 35968 ft 451 kts 342°
2026-05-06 17:56 13.29770 -75.11883 35971 ft 450 kts 342°
2026-05-06 17:56 13.34752 -75.13451 35984 ft 450 kts 342°
2026-05-06 17:57 13.41706 -75.15640 35978 ft 451 kts 343°
2026-05-06 17:57 13.47659 -75.17514 35972 ft 448 kts 343°
2026-05-06 17:58 13.52652 -75.19087 35968 ft 446 kts 343°
2026-05-06 17:58 13.58608 -75.20964 35985 ft 447 kts 343°
2026-05-06 17:59 13.64524 -75.22830 35979 ft 449 kts 343°
2026-05-06 17:59 13.70473 -75.24707 35972 ft 449 kts 343°
2026-05-06 18:00 13.76423 -75.26586 35973 ft 446 kts 343°
2026-05-06 18:00 13.82376 -75.28465 35982 ft 446 kts 343°
2026-05-06 18:01 13.88321 -75.30346 35988 ft 448 kts 343°
2026-05-06 18:01 13.94255 -75.32221 35983 ft 448 kts 343°
2026-05-06 18:02 14.00192 -75.34100 35973 ft 445 kts 343°
2026-05-06 18:02 14.06131 -75.35980 35982 ft 446 kts 343°
2026-05-06 18:03 14.12080 -75.37863 35985 ft 446 kts 343°
2026-05-06 18:03 14.18003 -75.39741 35986 ft 448 kts 343°
2026-05-06 18:04 14.23910 -75.41613 35977 ft 448 kts 343°
2026-05-06 18:04 14.29861 -75.43502 35969 ft 446 kts 343°
2026-05-06 18:05 14.35828 -75.45395 35983 ft 448 kts 344°
2026-05-06 18:05 14.41787 -75.47288 35993 ft 450 kts 343°
2026-05-06 18:06 14.47762 -75.49188 35990 ft 450 kts 343°
2026-05-06 18:06 14.53721 -75.51082 35982 ft 446 kts 343°
2026-05-06 18:07 14.59621 -75.52958 35983 ft 445 kts 344°
2026-05-06 18:07 14.65557 -75.54847 35991 ft 447 kts 343°
2026-05-06 18:08 14.71500 -75.56742 35993 ft 448 kts 344°
2026-05-06 18:08 14.77437 -75.58633 35992 ft 448 kts 344°
2026-05-06 18:09 14.83385 -75.60529 35986 ft 447 kts 344°
2026-05-06 18:09 14.89322 -75.62423 35992 ft 446 kts 344°
2026-05-06 18:10 14.95263 -75.64319 36025 ft 447 kts 344°
2026-05-06 18:10 14.98237 -75.65269 36266 ft 447 kts 344°
2026-05-06 18:10 15.01210 -75.66221 36497 ft 447 kts 344°
2026-05-06 18:11 15.04178 -75.67173 36780 ft 446 kts 343°
2026-05-06 18:11 15.07146 -75.68125 37006 ft 447 kts 343°
2026-05-06 18:11 15.10103 -75.69073 37263 ft 446 kts 343°
2026-05-06 18:11 15.13061 -75.70022 37527 ft 445 kts 343°
2026-05-06 18:12 15.16016 -75.70969 37746 ft 444 kts 343°
2026-05-06 18:12 15.18960 -75.71915 37996 ft 442 kts 343°
2026-05-06 18:12 15.24840 -75.73802 38007 ft 440 kts 343°
2026-05-06 18:13 15.30696 -75.75682 38002 ft 442 kts 343°
2026-05-06 18:13 15.36553 -75.77566 37982 ft 441 kts 343°
2026-05-06 18:14 15.42392 -75.79442 37989 ft 441 kts 343°
2026-05-06 18:14 15.48267 -75.81334 38019 ft 442 kts 343°
2026-05-06 18:15 15.54140 -75.83225 38017 ft 443 kts 344°
2026-05-06 18:15 15.60008 -75.85116 37992 ft 442 kts 343°
2026-05-06 18:16 15.65885 -75.87010 37987 ft 441 kts 343°
2026-05-06 18:16 15.71758 -75.88904 37997 ft 441 kts 343°
2026-05-06 18:17 15.77598 -75.90789 38018 ft 442 kts 344°
2026-05-06 18:17 15.83460 -75.92683 38017 ft 442 kts 344°
2026-05-06 18:18 15.89322 -75.94577 38026 ft 441 kts 343°
2026-05-06 18:18 15.95183 -75.96472 38003 ft 440 kts 343°
2026-05-06 18:19 16.01036 -75.98366 38001 ft 441 kts 344°
2026-05-06 18:19 16.06878 -76.00257 38016 ft 441 kts 343°
2026-05-06 18:20 16.12736 -76.02155 38013 ft 441 kts 344°
2026-05-06 18:20 16.18585 -76.04051 38008 ft 441 kts 343°
2026-05-06 18:21 16.24440 -76.05950 38020 ft 440 kts 344°
2026-05-06 18:21 16.30255 -76.07837 38007 ft 437 kts 344°
2026-05-06 18:22 16.36063 -76.09724 38017 ft 437 kts 344°
2026-05-06 18:22 16.41875 -76.11612 38016 ft 437 kts 344°
2026-05-06 18:23 16.47684 -76.13501 38015 ft 437 kts 344°
2026-05-06 18:23 16.53444 -76.15375 38013 ft 437 kts 344°
2026-05-06 18:24 16.59247 -76.17265 38035 ft 436 kts 345°
2026-05-06 18:24 16.65004 -76.19140 38015 ft 431 kts 345°
2026-05-06 18:25 16.70743 -76.21011 38020 ft 432 kts 345°
2026-05-06 18:25 16.76466 -76.22878 38022 ft 432 kts 345°
2026-05-06 18:26 16.82202 -76.24750 38020 ft 432 kts 345°
2026-05-06 18:26 16.87935 -76.26622 38024 ft 432 kts 345°
2026-05-06 18:27 16.93668 -76.28512 38035 ft 432 kts 344°
2026-05-06 18:27 16.99359 -76.30400 38021 ft 428 kts 344°
2026-05-06 18:28 17.05027 -76.32281 38027 ft 428 kts 344°
2026-05-06 18:28 17.10708 -76.34167 38028 ft 428 kts 344°
2026-05-06 18:29 17.16382 -76.36052 38024 ft 428 kts 344°
2026-05-06 18:29 17.22016 -76.37925 38023 ft 428 kts 344°
2026-05-06 18:30 17.27676 -76.39808 38024 ft 428 kts 344°
2026-05-06 18:30 17.33331 -76.41690 38020 ft 425 kts 344°
2026-05-06 18:31 17.38965 -76.43567 38019 ft 425 kts 344°
2026-05-06 18:31 17.44599 -76.45444 38017 ft 425 kts 344°
2026-05-06 18:32 17.50223 -76.47320 38018 ft 425 kts 344°
2026-05-06 18:32 17.55854 -76.49199 38027 ft 425 kts 344°
2026-05-06 18:33 17.61493 -76.51083 38011 ft 425 kts 344°
2026-05-06 18:33 17.67135 -76.52968 38019 ft 426 kts 344°
2026-05-06 18:34 17.72738 -76.54842 38027 ft 426 kts 344°
2026-05-06 18:34 17.78387 -76.56732 38024 ft 426 kts 344°
2026-05-06 18:35 17.84037 -76.58624 38022 ft 426 kts 344°
2026-05-06 18:35 17.89689 -76.60517 38024 ft 426 kts 344°
2026-05-06 18:36 17.95326 -76.62407 38026 ft 427 kts 344°
2026-05-06 18:36 18.00966 -76.64300 38030 ft 423 kts 344°
2026-05-06 18:37 18.05617 -76.65861 38024 ft 422 kts 344°
2026-05-06 18:37 18.12174 -76.68063 38019 ft 424 kts 344°
2026-05-06 18:38 18.17782 -76.69949 38025 ft 423 kts 344°
2026-05-06 18:38 18.23343 -76.71820 38022 ft 423 kts 344°
2026-05-06 18:39 18.28950 -76.73707 38029 ft 423 kts 344°
2026-05-06 18:40 18.37346 -76.76536 38028 ft 421 kts 344°
2026-05-06 18:40 18.42922 -76.78416 38033 ft 421 kts 344°
2026-05-06 18:41 18.48505 -76.80300 38034 ft 421 kts 344°
2026-05-06 18:41 18.54090 -76.82187 38031 ft 421 kts 344°
2026-05-06 18:42 18.59682 -76.84076 38033 ft 421 kts 344°
2026-05-06 18:42 18.65259 -76.85962 38031 ft 422 kts 344°
2026-05-06 18:43 18.70836 -76.87849 38031 ft 422 kts 344°
2026-05-06 18:43 18.76436 -76.89745 38034 ft 422 kts 344°
2026-05-06 18:44 18.81087 -76.91321 38037 ft 422 kts 344°
2026-05-06 18:44 18.86685 -76.93219 38037 ft 422 kts 344°
2026-05-06 18:45 18.93185 -76.95424 38039 ft 422 kts 343°
2026-05-06 18:45 18.97873 -76.97016 38040 ft 423 kts 343°
2026-05-06 18:46 19.03463 -76.98915 38042 ft 421 kts 343°
2026-05-06 18:46 19.09037 -77.00810 38043 ft 421 kts 343°
2026-05-06 18:47 19.14573 -77.02694 38041 ft 421 kts 343°
2026-05-06 18:47 19.20150 -77.04592 38044 ft 421 kts 343°
2026-05-06 18:48 19.25727 -77.06492 38044 ft 421 kts 343°
2026-05-06 18:48 19.31309 -77.08395 38045 ft 421 kts 343°
2026-05-06 18:49 19.36933 -77.10108 38056 ft 420 kts 346°
2026-05-06 18:49 19.42554 -77.11738 38047 ft 419 kts 346°
2026-05-06 18:50 19.48176 -77.13379 38048 ft 419 kts 345°
2026-05-06 18:50 19.53808 -77.15025 38048 ft 420 kts 346°
2026-05-06 18:51 19.59399 -77.16660 38053 ft 420 kts 345°
2026-05-06 18:51 19.65023 -77.18306 38053 ft 420 kts 345°
2026-05-06 18:52 19.70647 -77.19953 38052 ft 419 kts 345°
2026-05-06 18:52 19.76257 -77.21597 38053 ft 418 kts 345°
2026-05-06 18:53 19.81875 -77.23245 38035 ft 419 kts 345°
2026-05-06 18:53 19.87508 -77.24892 38053 ft 421 kts 345°
2026-05-06 18:54 19.93155 -77.26542 38049 ft 421 kts 345°
2026-05-06 18:54 19.98804 -77.28194 38050 ft 421 kts 345°
2026-05-06 18:55 20.04454 -77.29847 38046 ft 421 kts 345°
2026-05-06 18:55 20.10087 -77.31497 38051 ft 421 kts 345°
2026-05-06 18:56 20.15730 -77.33151 38046 ft 421 kts 345°
2026-05-06 18:56 20.21373 -77.34806 38045 ft 420 kts 345°
2026-05-06 18:57 20.27018 -77.36462 38040 ft 421 kts 345°
2026-05-06 18:57 20.32661 -77.38120 38040 ft 421 kts 345°
2026-05-06 18:58 20.38292 -77.39776 38041 ft 420 kts 345°
2026-05-06 18:58 20.43890 -77.41422 38040 ft 420 kts 345°
2026-05-06 18:59 20.49532 -77.43083 38039 ft 420 kts 345°
2026-05-06 18:59 20.55173 -77.44735 38039 ft 420 kts 345°
2026-05-06 19:00 20.60819 -77.46348 38036 ft 420 kts 345°
2026-05-06 19:00 20.66467 -77.47967 38039 ft 420 kts 345°
2026-05-06 19:01 20.72112 -77.49586 38041 ft 419 kts 345°
2026-05-06 19:01 20.77744 -77.51203 38033 ft 419 kts 345°
2026-05-06 19:02 20.83362 -77.52817 38041 ft 419 kts 345°
2026-05-06 19:02 20.88959 -77.54426 38040 ft 419 kts 345°
2026-05-06 19:03 20.94593 -77.56047 38039 ft 419 kts 345°
2026-05-06 19:03 21.00223 -77.57667 38041 ft 419 kts 345°
2026-05-06 19:04 21.05859 -77.59289 38028 ft 419 kts 345°
2026-05-06 19:04 21.11503 -77.60914 38039 ft 422 kts 345°
2026-05-06 19:05 21.17174 -77.62549 38036 ft 422 kts 345°
2026-05-06 19:05 21.22842 -77.64184 38039 ft 422 kts 345°
2026-05-06 19:06 21.28471 -77.65809 38035 ft 422 kts 345°
2026-05-06 19:06 21.34133 -77.67444 38057 ft 422 kts 345°
2026-05-06 19:07 21.39779 -77.69077 38034 ft 420 kts 345°
2026-05-06 19:07 21.45418 -77.70708 38042 ft 420 kts 345°
2026-05-06 19:08 21.51069 -77.72345 38038 ft 420 kts 345°
2026-05-06 19:08 21.56697 -77.73976 38045 ft 420 kts 345°
2026-05-06 19:09 21.62344 -77.75614 38045 ft 420 kts 345°
2026-05-06 19:09 21.67988 -77.77252 38045 ft 420 kts 344°
2026-05-06 19:10 21.73615 -77.78887 38035 ft 418 kts 344°
2026-05-06 19:10 21.79217 -77.80516 38041 ft 418 kts 344°
2026-05-06 19:11 21.84801 -77.82140 38050 ft 418 kts 344°
2026-05-06 19:11 21.90250 -77.84232 38024 ft 417 kts 327°
2026-05-06 19:12 21.94987 -77.87894 38035 ft 420 kts 325°
2026-05-06 19:12 21.99660 -77.91678 38043 ft 420 kts 324°
2026-05-06 19:13 22.04292 -77.95495 38060 ft 419 kts 324°
2026-05-06 19:13 22.08924 -77.99328 38051 ft 421 kts 324°
2026-05-06 19:14 22.13571 -78.03177 38044 ft 421 kts 324°
2026-05-06 19:14 22.18213 -78.07026 38047 ft 421 kts 324°
2026-05-06 19:15 22.22824 -78.10852 38054 ft 421 kts 324°
2026-05-06 19:15 22.27471 -78.14712 38048 ft 421 kts 323°
2026-05-06 19:16 22.32117 -78.18573 38053 ft 421 kts 323°
2026-05-06 19:16 22.36759 -78.22436 38060 ft 421 kts 323°
2026-05-06 19:17 22.41391 -78.26293 38053 ft 421 kts 323°
2026-05-06 19:17 22.46027 -78.30157 38058 ft 421 kts 323°
2026-05-06 19:18 22.50670 -78.34028 38057 ft 421 kts 323°
2026-05-06 19:18 22.55316 -78.37884 38049 ft 421 kts 323°
2026-05-06 19:19 22.59967 -78.41748 38059 ft 421 kts 323°
2026-05-06 19:19 22.64605 -78.45604 38048 ft 421 kts 323°
2026-05-06 19:20 22.69218 -78.49442 38064 ft 421 kts 323°
2026-05-06 19:20 22.73856 -78.53305 38053 ft 420 kts 323°
2026-05-06 19:21 22.78917 -78.56334 38061 ft 418 kts 345°
2026-05-06 19:21 22.84634 -78.57635 38048 ft 421 kts 347°
2026-05-06 19:22 22.90406 -78.58789 38056 ft 422 kts 348°
2026-05-06 19:22 22.96191 -78.59890 38057 ft 422 kts 348°
2026-05-06 19:23 23.01977 -78.60980 38062 ft 422 kts 348°
2026-05-06 19:23 23.07744 -78.62067 38061 ft 421 kts 348°
2026-05-06 19:24 23.13515 -78.63156 38060 ft 421 kts 348°
2026-05-06 19:24 23.19292 -78.64246 38060 ft 421 kts 348°
2026-05-06 19:25 23.25035 -78.65331 38062 ft 421 kts 348°
2026-05-06 19:25 23.30803 -78.66422 38062 ft 421 kts 348°
2026-05-06 19:26 23.36577 -78.67515 38069 ft 421 kts 348°
2026-05-06 19:26 23.42343 -78.68607 38059 ft 422 kts 348°
2026-05-06 19:27 23.48142 -78.69707 38061 ft 424 kts 348°
2026-05-06 19:27 23.53950 -78.70809 38062 ft 423 kts 348°
2026-05-06 19:28 23.59741 -78.71909 38072 ft 423 kts 348°
2026-05-06 19:28 23.65543 -78.73012 38072 ft 423 kts 348°
2026-05-06 19:29 23.71336 -78.74114 38059 ft 421 kts 347°
2026-05-06 19:29 23.77112 -78.75214 38064 ft 422 kts 347°
2026-05-06 19:30 23.82848 -78.76308 38067 ft 422 kts 347°
2026-05-06 19:30 23.88632 -78.77411 38069 ft 422 kts 347°
2026-05-06 19:31 23.94413 -78.78515 38068 ft 422 kts 347°
2026-05-06 19:31 24.02618 -78.81497 38083 ft 415 kts 329°
2026-05-06 19:32 24.07624 -78.84658 38068 ft 416 kts 328°
2026-05-06 19:32 24.12594 -78.87908 38063 ft 416 kts 328°
2026-05-06 19:33 24.16715 -78.90631 38064 ft 416 kts 328°
2026-05-06 19:33 24.21666 -78.93909 38064 ft 416 kts 328°
2026-05-06 19:34 24.26616 -78.97190 38067 ft 416 kts 328°
2026-05-06 19:34 24.31566 -79.00474 38067 ft 416 kts 328°
2026-05-06 19:35 24.36521 -79.03764 38064 ft 416 kts 328°
2026-05-06 19:35 24.41472 -79.07055 38058 ft 417 kts 327°
2026-05-06 19:36 24.46430 -79.10354 37806 ft 413 kts 328°
2026-05-06 19:36 24.48868 -79.11976 37202 ft 410 kts 328°
2026-05-06 19:36 24.51299 -79.13596 36704 ft 406 kts 328°
2026-05-06 19:37 24.53702 -79.15197 36173 ft 403 kts 328°
2026-05-06 19:37 24.56089 -79.16788 35457 ft 410 kts 328°
2026-05-06 19:37 24.58543 -79.18425 34693 ft 413 kts 328°
2026-05-06 19:37 24.61008 -79.20069 33955 ft 417 kts 328°
2026-05-06 19:38 24.63531 -79.21755 33097 ft 421 kts 328°
2026-05-06 19:38 24.66006 -79.23407 32296 ft 423 kts 328°
2026-05-06 19:38 24.68509 -79.25079 31519 ft 423 kts 329°
2026-05-06 19:38 24.71037 -79.26769 30709 ft 429 kts 329°
2026-05-06 19:39 24.73605 -79.28487 29795 ft 433 kts 329°
2026-05-06 19:39 24.76179 -79.30211 28797 ft 436 kts 329°
2026-05-06 19:39 24.78791 -79.31959 28034 ft 443 kts 329°
2026-05-06 19:39 24.81428 -79.33726 27407 ft 445 kts 329°
2026-05-06 19:40 24.84074 -79.35499 26613 ft 443 kts 329°
2026-05-06 19:40 24.86695 -79.37257 25979 ft 438 kts 329°
2026-05-06 19:40 24.89256 -79.38975 25345 ft 434 kts 329°
2026-05-06 19:40 24.91816 -79.40694 24699 ft 432 kts 329°
2026-05-06 19:41 24.94376 -79.42413 24041 ft 429 kts 329°
2026-05-06 19:41 24.96918 -79.44121 23350 ft 427 kts 329°
2026-05-06 19:41 24.99448 -79.45821 22653 ft 424 kts 329°
2026-05-06 19:41 25.01933 -79.47493 22367 ft 412 kts 329°
2026-05-06 19:42 25.04341 -79.49113 22121 ft 399 kts 329°
2026-05-06 19:42 25.06678 -79.50686 21901 ft 388 kts 329°
2026-05-06 19:42 25.08947 -79.52214 21693 ft 377 kts 329°
2026-05-06 19:42 25.11157 -79.53703 21241 ft 373 kts 329°
2026-05-06 19:43 25.13367 -79.55193 20785 ft 371 kts 329°
2026-05-06 19:43 25.15559 -79.56671 20370 ft 367 kts 330°
2026-05-06 19:43 25.17727 -79.58133 19958 ft 364 kts 330°
2026-05-06 19:43 25.19880 -79.59587 19547 ft 361 kts 330°
2026-05-06 19:44 25.22016 -79.61029 19143 ft 359 kts 330°
2026-05-06 19:44 25.24140 -79.62464 18738 ft 356 kts 330°
2026-05-06 19:44 25.26245 -79.63886 18340 ft 354 kts 330°
2026-05-06 19:44 25.28338 -79.65302 17891 ft 351 kts 330°
2026-05-06 19:45 25.30411 -79.66703 17488 ft 347 kts 330°
2026-05-06 19:45 25.32451 -79.68084 17094 ft 344 kts 330°
2026-05-06 19:45 25.34483 -79.69459 16710 ft 340 kts 330°
2026-05-06 19:45 25.36490 -79.70818 16330 ft 337 kts 330°
2026-05-06 19:46 25.38432 -79.72258 15956 ft 337 kts 320°
2026-05-06 19:46 25.39921 -79.74227 15653 ft 341 kts 309°
2026-05-06 19:46 25.41331 -79.76352 15321 ft 345 kts 309°
2026-05-06 19:46 25.42741 -79.78502 14994 ft 345 kts 309°
2026-05-06 19:47 25.44139 -79.80656 14626 ft 345 kts 309°
2026-05-06 19:47 25.45541 -79.82833 14125 ft 348 kts 309°
2026-05-06 19:47 25.46938 -79.85007 13819 ft 344 kts 309°
2026-05-06 19:47 25.48314 -79.87152 13502 ft 342 kts 309°
2026-05-06 19:48 25.49683 -79.89289 13136 ft 342 kts 308°
2026-05-06 19:48 25.51053 -79.91429 12803 ft 339 kts 308°
2026-05-06 19:48 25.52407 -79.93544 12475 ft 334 kts 308°
2026-05-06 19:48 25.53742 -79.95630 12153 ft 330 kts 308°
2026-05-06 19:49 25.55060 -79.97691 11837 ft 326 kts 308°
2026-05-06 19:49 25.56363 -79.99729 11517 ft 322 kts 308°
2026-05-06 19:49 25.57648 -80.01740 11204 ft 318 kts 308°
2026-05-06 19:49 25.58918 -80.03728 10875 ft 315 kts 307°
2026-05-06 19:50 25.60183 -80.05710 10490 ft 315 kts 307°
2026-05-06 19:50 25.61445 -80.07687 10144 ft 313 kts 307°
2026-05-06 19:50 25.62697 -80.09649 9789 ft 312 kts 307°
2026-05-06 19:50 25.63941 -80.11601 9395 ft 310 kts 307°
2026-05-06 19:51 25.65174 -80.13536 9050 ft 308 kts 306°
2026-05-06 19:51 25.66179 -80.15610 8761 ft 304 kts 295°
2026-05-06 19:51 25.67055 -80.17725 8474 ft 300 kts 297°
2026-05-06 19:51 25.67941 -80.19799 8202 ft 295 kts 297°
2026-05-06 19:52 25.68811 -80.21830 7994 ft 289 kts 296°
2026-05-06 19:52 25.69653 -80.23843 7694 ft 287 kts 296°
2026-05-06 19:52 25.70493 -80.25841 7412 ft 284 kts 296°
2026-05-06 19:52 25.71140 -80.27893 7095 ft 283 kts 277°
2026-05-06 19:53 25.71116 -80.30067 6825 ft 281 kts 268°
2026-05-06 19:53 25.71026 -80.32220 6559 ft 278 kts 267°
2026-05-06 19:53 25.70933 -80.34354 6280 ft 276 kts 267°
2026-05-06 19:53 25.70837 -80.36458 6001 ft 273 kts 267°
2026-05-06 19:54 25.70740 -80.38541 5735 ft 270 kts 267°
2026-05-06 19:54 25.70641 -80.40611 5471 ft 268 kts 267°
2026-05-06 19:54 25.70543 -80.42669 5181 ft 266 kts 267°
2026-05-06 19:54 25.70423 -80.44685 4887 ft 265 kts 265°
2026-05-06 19:55 25.70251 -80.46702 4698 ft 260 kts 264°
2026-05-06 19:55 25.70060 -80.48656 4623 ft 250 kts 264°
2026-05-06 19:55 25.69890 -80.50556 4386 ft 247 kts 268°
2026-05-06 19:55 25.70248 -80.52392 4102 ft 245 kts 299°
2026-05-06 19:56 25.71364 -80.53724 3985 ft 231 kts 330°
2026-05-06 19:56 25.72848 -80.54263 3780 ft 223 kts 353°
2026-05-06 19:56 25.74390 -80.54488 3449 ft 224 kts 354°
2026-05-06 19:56 25.75931 -80.54692 3159 ft 222 kts 355°
2026-05-06 19:57 25.77426 -80.54438 2838 ft 218 kts 26°
2026-05-06 19:57 25.78572 -80.53383 2576 ft 214 kts 57°
2026-05-06 19:57 25.79048 -80.51866 2265 ft 209 kts 88°
2026-05-06 19:57 25.78791 -80.50293 1938 ft 206 kts 110°
2026-05-06 19:58 25.78378 -80.48803 1650 ft 200 kts 104°
2026-05-06 19:58 25.78152 -80.47324 1540 ft 189 kts 98°
2026-05-06 19:58 25.78071 -80.45873 1523 ft 188 kts 92°
2026-05-06 19:58 25.78083 -80.44449 1484 ft 182 kts 89°
2026-05-06 19:59 25.78131 -80.43084 1504 ft 178 kts 89°
2026-05-06 19:59 25.78186 -80.41722 1478 ft 176 kts 88°
2026-05-06 19:59 25.78244 -80.40374 1539 ft 175 kts 89°
2026-05-06 19:59 25.78301 -80.39031 1370 ft 168 kts 89°
2026-05-06 20:00 25.78351 -80.37821 1196 ft 147 kts 87°
2026-05-06 20:00 25.78399 -80.36711 1048 ft 143 kts 90°
2026-05-06 20:00 25.78441 -80.35608 815 ft 143 kts 89°
2026-05-06 20:00 25.78490 -80.34495 662 ft 143 kts 91°
2026-05-06 20:01 25.78521 -80.33406 484 ft 141 kts 89°
2026-05-06 20:01 25.78573 -80.32320 257 ft 145 kts 90°
2026-05-06 20:01 25.78625 -80.31217 86 ft 139 kts 88°
2026-05-06 20:01 25.78666 -80.30220 22 ft 112 kts 88°
2026-05-06 20:02 25.78691 -80.29595 19 ft 65 kts 88°
2026-05-06 20:02 25.78710 -80.29146 24 ft 56 kts 87°
2026-05-06 20:02 25.78742 -80.28784 23 ft 37 kts 70°
2026-05-06 20:02 25.78903 -80.28679 17 ft 21 kts 355°
2026-05-06 20:03 25.79056 -80.28689 17 ft 23 kts 357°
2026-05-06 20:03 25.79223 -80.28697 17 ft 26 kts 358°
2026-05-06 20:03 25.79378 -80.28723 17 ft 12 kts 312°
2026-05-06 20:03 25.79429 -80.28802 18 ft 13 kts 331°
2026-05-06 20:04 25.79544 -80.28806 22 ft 22 kts
2026-05-06 20:04 25.79717 -80.28813 23 ft 27 kts 358°
2026-05-06 20:04 25.79905 -80.28817 24 ft 21 kts 17°
2026-05-06 20:04 25.79937 -80.28740 24 ft 11 kts 87°
2026-05-06 20:05 25.79942 -80.28608 22 ft 23 kts 88°
2026-05-06 20:05 25.79934 -80.28444 21 ft 10 kts 130°
2026-05-06 20:05 25.79918 -80.28434 19 ft 0 kts 155°
2026-05-06 20:06 25.79917 -80.28434 19 ft 0 kts 154°
2026-05-06 20:07 25.79915 -80.28433 19 ft 1 kts 154°
2026-05-06 20:07 25.79896 -80.28418 19 ft 7 kts 130°
2026-05-06 20:07 25.79887 -80.28328 18 ft 15 kts 88°
2026-05-06 20:07 25.79888 -80.28234 17 ft 6 kts 106°
2026-05-06 20:08 25.79871 -80.28220 16 ft 5 kts 160°
2026-05-06 20:08 25.79835 -80.28215 16 ft 3 kts 178°
2026-05-06 20:08 25.79827 -80.28215 16 ft 0 kts 179°